| time (UTC) | temp C | wind direction | speed KPH | gust KPH | rain 1hr cm | rain 24hr cm | rain mn cm | humidity % | barometer mb |
| 20260502130541 | 23 | 74 | 4.8 | 16.1 | 0.00 | 0.00 | 0.00 | ||
| 20260502130139 | 23 | 48 | 3.2 | 8.0 | 0.00 | 0.00 | 0.00 | ||
| 20260502123723 | 22 | 26 | 8.0 | 11.3 | 0.00 | 0.00 | 0.00 | ||
| 20260502123321 | 22 | 70 | 4.8 | 16.1 | 0.00 | 0.00 | 0.00 | ||
| 20260502122919 | 22 | 77 | 8.0 | 11.3 | 0.00 | 0.00 | 0.00 | ||
| 20260502122518 | 22 | 87 | 6.4 | 14.5 | 0.00 | 0.00 | 0.00 | ||
| 20260502122116 | 22 | 63 | 11.3 | 17.7 | 0.00 | 0.00 | 0.00 | ||
| 20260502121715 | 22 | 23 | 11.3 | 17.7 | 0.00 | 0.00 | 0.00 | ||
| 20260502121312 | 22 | 9 | 14.5 | 19.3 | 0.00 | 0.00 | 0.00 | ||
| 20260502120911 | 22 | 28 | 6.4 | 16.1 | 0.00 | 0.00 | 0.00 | ||
| 20260502120510 | 22 | 79 | 8.0 | 9.7 | 0.00 | 0.00 | 0.00 | ||
| 20260502120108 | 22 | 15 | 8.0 | 17.7 | 0.00 | 0.00 | 0.00 | ||
| 20260502115659 | 22 | 9 | 6.4 | 9.7 | 0.00 | 0.00 | 0.00 | ||
| 20260502115257 | 22 | 11 | 12.9 | 19.3 | 0.00 | 0.00 | 0.00 | ||
| 20260502114856 | 21 | 353 | 6.4 | 14.5 | 0.00 | 0.00 | 0.00 | ||
| 20260502114455 | 22 | 19 | 11.3 | 17.7 | 0.00 | 0.00 | 0.00 | ||
| 20260502114052 | 22 | 2 | 4.8 | 17.7 | 0.00 | 0.00 | 0.00 | ||
| 20260502113651 | 22 | 23 | 9.7 | 17.7 | 0.00 | 0.00 | 0.00 | ||
| 20260502112848 | 21 | 345 | 8.0 | 12.9 | 0.00 | 0.00 | 0.00 | ||
| 20260502112447 | 22 | 42 | 9.7 | 16.1 | 0.00 | 0.00 | 0.00 | ||
| 20260502112044 | 22 | 55 | 8.0 | 14.5 | 0.00 | 0.00 | 0.00 | ||
| 20260502111636 | 22 | 354 | 8.0 | 12.9 | 0.00 | 0.00 | 0.00 | ||
| 20260502111235 | 21 | 332 | 12.9 | 17.7 | 0.00 | 0.00 | 0.00 | ||
| 20260502110834 | 21 | 350 | 6.4 | 14.5 | 0.00 | 0.00 | 0.00 | ||
| 20260502110432 | 21 | 1 | 11.3 | 17.7 | 0.00 | 0.00 | 0.00 | ||
| 20260502110030 | 21 | 336 | 6.4 | 12.9 | 0.00 | 0.00 | 0.00 | ||
| 20260502105227 | 21 | 343 | 9.7 | 14.5 | 0.00 | 0.00 | 0.00 | ||
| 20260502104825 | 21 | 4 | 6.4 | 12.9 | 0.00 | 0.00 | 0.00 | ||
| 20260502104424 | 21 | 343 | 6.4 | 11.3 | 0.00 | 0.00 | 0.00 | ||
| 20260502104022 | 21 | 17 | 9.7 | 16.1 | 0.00 | 0.00 | 0.00 | ||
| 20260502103614 | 21 | 359 | 6.4 | 12.9 | 0.00 | 0.00 | 0.00 | ||
| 20260502103211 | 21 | 42 | 3.2 | 8.0 | 0.00 | 0.00 | 0.00 | ||
| 20260502102810 | 21 | 10 | 6.4 | 11.3 | 0.00 | 0.00 | 0.00 | ||
| 20260502102409 | 21 | 8 | 9.7 | 17.7 | 0.00 | 0.00 | 0.00 | ||
| 20260502102007 | 21 | 356 | 6.4 | 14.5 | 0.00 | 0.00 | 0.00 | ||
| 20260502101606 | 20 | 328 | 6.4 | 12.9 | 0.00 | 0.00 | 0.00 | ||
| 20260502101203 | 21 | 31 | 3.2 | 9.7 | 0.00 | 0.00 | 0.00 | ||
| 20260502100802 | 20 | 73 | 16.1 | 20.9 | 0.00 | 0.00 | 0.00 | ||
| 20260502091526 | 20 | 82 | 12.9 | 20.9 | 0.00 | 0.00 | 0.00 | ||
| 20260502091124 | 20 | 55 | 12.9 | 19.3 | 0.00 | 0.00 | 0.00 | ||
| 20260502090723 | 20 | 18 | 8.0 | 16.1 | 0.00 | 0.00 | 0.00 | ||
| 20260502090321 | 20 | 180 | 1.6 | 6.4 | 0.00 | 0.00 | 0.00 | ||
| 20260502071417 | 17 | 225 | 0.0 | 3.2 | 0.00 | 0.00 | 0.00 | ||
| 20260502071015 | 18 | 202 | 1.6 | 4.8 | 0.00 | 0.00 | 0.00 | ||
| 20260502070613 | 20 | 189 | 1.6 | 6.4 | 0.00 | 0.00 | 0.00 | ||
| 20260502070212 | 21 | 157 | 1.6 | 4.8 | 0.00 | 0.00 | 0.00 | ||
| 20260502065810 | 18 | 146 | 3.2 | 6.4 | 0.00 | 0.00 | 0.00 | ||
| 20260502065409 | 17 | 135 | 1.6 | 4.8 | 0.00 | 0.00 | 0.00 | ||
| 20260502065007 | 17 | 135 | 0.0 | 1.6 | 0.00 | 0.00 | 0.00 | ||
| 20260502064605 | 17 | 135 | 1.6 | 4.8 | 0.00 | 0.00 | 0.00 | ||
| 20260502064204 | 18 | 135 | 1.6 | 3.2 | 0.00 | 0.00 | 0.00 | ||
| 20260502063802 | 18 | 135 | 3.2 | 4.8 | 0.00 | 0.00 | 0.00 | ||
| 20260502063354 | 17 | 135 | 0.0 | 3.2 | 0.00 | 0.00 | 0.00 | ||
| 20260502062951 | 17 | 135 | 0.0 | 0.0 | 0.00 | 0.00 | 0.00 | ||
| 20260502062550 | 18 | 135 | 0.0 | 3.2 | 0.00 | 0.00 | 0.00 | ||
| 20260502062149 | 17 | 135 | 0.0 | 4.8 | 0.00 | 0.00 | 0.00 | ||
| 20260502061748 | 18 | 135 | 0.0 | 3.2 | 0.00 | 0.00 | 0.00 | ||
| 20260502061345 | 17 | 135 | 0.0 | 1.6 | 0.00 | 0.00 | 0.00 | ||
| 20260502060944 | 17 | 135 | 1.6 | 3.2 | 0.00 | 0.00 | 0.00 | ||
| 20260502060543 | 16 | 135 | 0.0 | 3.2 | 0.00 | 0.00 | 0.00 | ||
| 20260502060142 | 16 | 135 | 3.2 | 4.8 | 0.00 | 0.00 | 0.00 | ||
| 20260502055738 | 16 | 135 | 1.6 | 3.2 | 0.00 | 0.00 | 0.00 | ||
| 20260502055330 | 15 | 135 | 0.0 | 3.2 | 0.00 | 0.00 | 0.00 | ||
| 20260502054929 | 16 | 135 | 0.0 | 3.2 | 0.00 | 0.00 | 0.00 | ||
| 20260502054528 | 15 | 135 | 1.6 | 3.2 | 0.00 | 0.00 | 0.00 | ||
| 20260502054127 | 15 | 135 | 1.6 | 3.2 | 0.00 | 0.00 | 0.00 | ||
| 20260502053724 | 15 | 135 | 1.6 | 3.2 | 0.00 | 0.00 | 0.00 | ||
| 20260502053323 | 14 | 135 | 0.0 | 3.2 | 0.00 | 0.00 | 0.00 | ||
| 20260502052921 | 14 | 135 | 0.0 | 3.2 | 0.00 | 0.00 | 0.00 | ||
| 20260502052520 | 14 | 135 | 1.6 | 3.2 | 0.00 | 0.00 | 0.00 | ||
| 20260502052118 | 13 | 135 | 0.0 | 1.6 | 0.00 | 0.00 | 0.00 | ||
| 20260502051716 | 13 | 135 | 1.6 | 6.4 | 0.00 | 0.00 | 0.00 | ||
| 20260502051308 | 12 | 135 | 1.6 | 4.8 | 0.00 | 0.00 | 0.00 | ||
| 20260502050906 | 12 | 135 | 3.2 | 8.0 | 0.00 | 0.00 | 0.00 | ||
| 20260502050504 | 12 | 135 | 4.8 | 6.4 | 0.00 | 0.00 | 0.00 | ||
| 20260502045701 | 12 | 135 | 0.0 | 3.2 | 0.00 | 0.00 | 0.00 | ||
| 20260502045300 | 11 | 135 | 0.0 | 0.0 | 0.00 | 0.00 | 0.00 | ||
| 20260502044857 | 11 | 135 | 0.0 | 1.6 | 0.00 | 0.00 | 0.00 | ||
| 20260502044456 | 11 | 135 | 3.2 | 4.8 | 0.00 | 0.00 | 0.00 | ||
| 20260502044055 | 11 | 135 | 0.0 | 3.2 | 0.00 | 0.00 | 0.00 | ||
| 20260502043653 | 11 | 135 | 1.6 | 3.2 | 0.00 | 0.00 | 0.00 | ||
| 20260502043245 | 10 | 135 | 0.0 | 4.8 | 0.00 | 0.00 | 0.00 | ||
| 20260502042842 | 10 | 135 | 3.2 | 6.4 | 0.00 | 0.00 | 0.00 | ||
| 20260502042441 | 11 | 136 | 4.8 | 8.0 | 0.00 | 0.00 | 0.00 | ||
| 20260502042041 | 10 | 157 | 3.2 | 6.4 | 0.00 | 0.00 | 0.00 | ||
| 20260502041639 | 10 | 139 | 3.2 | 9.7 | 0.00 | 0.00 | 0.00 | ||
| 20260502041237 | 10 | 153 | 3.2 | 6.4 | 0.00 | 0.00 | 0.00 | ||
| 20260502040835 | 9 | 157 | 1.6 | 3.2 | 0.00 | 0.00 | 0.00 | ||
| 20260502040434 | 10 | 157 | 3.2 | 8.0 | 0.00 | 0.00 | 0.00 | ||
| 20260502040033 | 9 | 169 | 4.8 | 8.0 | 0.00 | 0.00 | 0.00 | ||
| 20260502035630 | 8 | 161 | 4.8 | 9.7 | 0.00 | 0.00 | 0.00 | ||
| 20260502035222 | 8 | 157 | 4.8 | 8.0 | 0.00 | 0.00 | 0.00 | ||
| 20260502034820 | 8 | 157 | 4.8 | 8.0 | 0.00 | 0.00 | 0.00 | ||
| 20260502034419 | 8 | 157 | 4.8 | 6.4 | 0.00 | 0.00 | 0.00 | ||
| 20260502034017 | 8 | 157 | 6.4 | 9.7 | 0.00 | 0.00 | 0.00 | ||
| 20260502033615 | 8 | 157 | 4.8 | 6.4 | 0.00 | 0.00 | 0.00 | ||
| 20260502033214 | 7 | 157 | 3.2 | 6.4 | 0.00 | 0.00 | 0.00 | ||
| 20260502032812 | 7 | 157 | 4.8 | 6.4 | 0.00 | 0.00 | 0.00 | ||
| 20260502032411 | 8 | 157 | 1.6 | 4.8 | 0.00 | 0.00 | 0.00 | ||
| 20260502032009 | 8 | 157 | 3.2 | 6.4 | 0.00 | 0.00 | 0.00 | ||
| 20260502031607 | 8 | 157 | 4.8 | 11.3 | 0.00 | 0.00 | 0.00 | ||
| 20260502031159 | 8 | 157 | 4.8 | 8.0 | 0.00 | 0.00 | 0.00 | ||
| 20260502030757 | 8 | 157 | 4.8 | 8.0 | 0.00 | 0.00 | 0.00 | ||
| 20260502030355 | 7 | 157 | 4.8 | 8.0 | 0.00 | 0.00 | 0.00 | ||
| 20260502025553 | 8 | 157 | 3.2 | 6.4 | 0.00 | 0.00 | 0.00 | ||
| 20260502025152 | 8 | 157 | 3.2 | 6.4 | 0.00 | 0.00 | 0.00 | ||
| 20260502024748 | 7 | 157 | 1.6 | 4.8 | 0.00 | 0.00 | 0.00 | ||
| 20260502024347 | 8 | 157 | 3.2 | 4.8 | 0.00 | 0.00 | 0.00 | ||
| 20260502023946 | 8 | 157 | 4.8 | 6.4 | 0.00 | 0.00 | 0.00 | ||
| 20260502023544 | 8 | 157 | 4.8 | 8.0 | 0.00 | 0.00 | 0.00 | ||
| 20260502023135 | 9 | 140 | 3.2 | 8.0 | 0.00 | 0.00 | 0.00 | ||
| 20260502022733 | 9 | 157 | 6.4 | 9.7 | 0.00 | 0.00 | 0.00 | ||
| 20260502022332 | 8 | 157 | 3.2 | 8.0 | 0.00 | 0.00 | 0.00 | ||
| 20260502021931 | 8 | 157 | 3.2 | 4.8 | 0.00 | 0.00 | 0.00 | ||
| 20260502021529 | 8 | 157 | 1.6 | 4.8 | 0.00 | 0.00 | 0.00 | ||
| 20260502021126 | 8 | 157 | 4.8 | 8.0 | 0.00 | 0.00 | 0.00 | ||
| 20260502020724 | 8 | 157 | 3.2 | 9.7 | 0.00 | 0.00 | 0.00 | ||
| 20260502020323 | 8 | 157 | 3.2 | 6.4 | 0.00 | 0.00 | 0.00 | ||
| 20260502015922 | 8 | 157 | 1.6 | 6.4 | 0.00 | 0.00 | 0.00 | ||
| 20260502015519 | 9 | 157 | 4.8 | 6.4 | 0.00 | 0.00 | 0.00 | ||
| 20260502015111 | 9 | 136 | 4.8 | 9.7 | 0.00 | 0.00 | 0.00 | ||
| 20260502014308 | 10 | 135 | 3.2 | 6.4 | 0.00 | 0.00 | 0.00 | ||
| 20260502013906 | 10 | 135 | 3.2 | 6.4 | 0.00 | 0.00 | 0.00 | ||
| 20260502013504 | 10 | 135 | 4.8 | 8.0 | 0.00 | 0.00 | 0.00 | ||
| 20260502013103 | 10 | 135 | 4.8 | 8.0 | 0.00 | 0.00 | 0.00 | ||
| 20260502012701 | 10 | 135 | 4.8 | 6.4 | 0.00 | 0.00 | 0.00 | ||
| 20260502012259 | 9 | 135 | 3.2 | 8.0 | 0.00 | 0.00 | 0.00 | ||
| 20260502011858 | 9 | 135 | 3.2 | 4.8 | 0.00 | 0.00 | 0.00 | ||
| 20260502011456 | 8 | 135 | 3.2 | 3.2 | 0.00 | 0.00 | 0.00 | ||
| 20260502011048 | 8 | 135 | 3.2 | 6.4 | 0.00 | 0.00 | 0.00 | ||
| 20260502010646 | 8 | 143 | 3.2 | 6.4 | 0.00 | 0.00 | 0.00 | ||
| 20260502010244 | 8 | 157 | 3.2 | 3.2 | 0.00 | 0.00 | 0.00 | ||
| 20260502005843 | 8 | 157 | 1.6 | 3.2 | 0.00 | 0.00 | 0.00 | ||
| 20260502005441 | 9 | 157 | 1.6 | 4.8 | 0.00 | 0.00 | 0.00 | ||
| 20260502005040 | 9 | 157 | 1.6 | 3.2 | 0.00 | 0.00 | 0.00 | ||
| 20260502004637 | 10 | 157 | 1.6 | 6.4 | 0.00 | 0.00 | 0.00 | ||
| 20260502004236 | 9 | 157 | 1.6 | 3.2 | 0.00 | 0.00 | 0.00 | ||
| 20260502003835 | 9 | 157 | 1.6 | 3.2 | 0.00 | 0.00 | 0.00 | ||
| 20260502003433 | 9 | 157 | 1.6 | 4.8 | 0.00 | 0.00 | 0.00 | ||
| 20260502003024 | 10 | 157 | 3.2 | 4.8 | 0.00 | 0.00 | 0.00 | ||
| 20260502002622 | 10 | 157 | 4.8 | 8.0 | 0.00 | 0.00 | 0.00 | ||
| 20260502002221 | 10 | 157 | 4.8 | 8.0 | 0.00 | 0.00 | 0.00 | ||
| 20260502001820 | 11 | 172 | 3.2 | 6.4 | 0.00 | 0.00 | 0.00 | ||
| 20260502001417 | 10 | 164 | 3.2 | 6.4 | 0.00 | 0.00 | 0.00 | ||
| 20260502001017 | 10 | 135 | 3.2 | 6.4 | 0.00 | 0.00 | 0.00 | ||
| 20260502000615 | 10 | 135 | 1.6 | 3.2 | 0.00 | 0.00 | 0.00 | ||
| 20260502000214 | 10 | 135 | 3.2 | 6.4 | 0.00 | 0.00 | 0.00 | ||
| 20260501235813 | 10 | 135 | 3.2 | 8.0 | 0.00 | 0.00 | 0.00 | ||
| 20260501235410 | 10 | 135 | 3.2 | 6.4 | 0.00 | 0.00 | 0.00 | ||
| 20260501235002 | 10 | 135 | 3.2 | 6.4 | 0.00 | 0.00 | 0.00 | ||
| 20260501234600 | 10 | 135 | 3.2 | 6.4 | 0.00 | 0.00 | 0.00 | ||
| 20260501234159 | 11 | 135 | 4.8 | 8.0 | 0.00 | 0.00 | 0.00 | ||
| 20260501233757 | 10 | 135 | 3.2 | 4.8 | 0.00 | 0.00 | 0.00 | ||
| 20260501233355 | 11 | 135 | 1.6 | 3.2 | 0.00 | 0.00 | 0.00 | ||
| 20260501232954 | 10 | 135 | 1.6 | 3.2 | 0.00 | 0.00 | 0.00 | ||
| 20260501232552 | 11 | 135 | 3.2 | 6.4 | 0.00 | 0.00 | 0.00 | ||
| 20260501232150 | 11 | 135 | 1.6 | 6.4 | 0.00 | 0.00 | 0.00 | ||
| 20260501231749 | 11 | 135 | 3.2 | 8.0 | 0.00 | 0.00 | 0.00 | ||
| 20260501231347 | 11 | 135 | 1.6 | 4.8 | 0.00 | 0.00 | 0.00 | ||
| 20260501230939 | 11 | 135 | 1.6 | 4.8 | 0.00 | 0.00 | 0.00 | ||
| 20260501230536 | 11 | 157 | 0.0 | 1.6 | 0.00 | 0.00 | 0.00 | ||
| 20260501230135 | 11 | 157 | 0.0 | 0.0 | 0.00 | 0.00 | 0.00 | ||
| 20260501225734 | 11 | 157 | 0.0 | 3.2 | 0.00 | 0.00 | 0.00 | ||
| 20260501225332 | 11 | 157 | 1.6 | 4.8 | 0.00 | 0.00 | 0.00 | ||
| 20260501224931 | 11 | 157 | 1.6 | 3.2 | 0.00 | 0.00 | 0.00 | ||
| 20260501224528 | 11 | 157 | 1.6 | 3.2 | 0.00 | 0.00 | 0.00 | ||
| 20260501224127 | 11 | 157 | 1.6 | 3.2 | 0.00 | 0.00 | 0.00 | ||
| 20260501223726 | 11 | 157 | 0.0 | 3.2 | 0.00 | 0.00 | 0.00 | ||
| 20260501223325 | 11 | 157 | 1.6 | 6.4 | 0.00 | 0.00 | 0.00 | ||
| 20260501222915 | 12 | 157 | 1.6 | 4.8 | 0.00 | 0.00 | 0.00 | ||
| 20260501222514 | 11 | 157 | 1.6 | 6.4 | 0.00 | 0.00 | 0.00 | ||
| 20260501222113 | 11 | 157 | 0.0 | 0.0 | 0.00 | 0.00 | 0.00 | ||
| 20260501221712 | 12 | 157 | 1.6 | 3.2 | 0.00 | 0.00 | 0.00 | ||
| 20260501221309 | 12 | 98 | 3.2 | 6.4 | 0.00 | 0.00 | 0.00 | ||
| 20260501220908 | 12 | 21 | 3.2 | 4.8 | 0.00 | 0.00 | 0.00 | ||
| 20260501220506 | 12 | 21 | 1.6 | 1.6 | 0.00 | 0.00 | 0.00 | ||
| 20260501220105 | 12 | 21 | 0.0 | 0.0 | 0.00 | 0.00 | 0.00 | ||
| 20260501215703 | 12 | 21 | 0.0 | 1.6 | 0.00 | 0.00 | 0.00 | ||
| 20260501215301 | 12 | 21 | 0.0 | 3.2 | 0.00 | 0.00 | 0.00 | ||
| 20260501214853 | 12 | 4 | 0.0 | 0.0 | 0.00 | 0.00 | 0.00 | ||
| 20260501214451 | 12 | 0 | 0.0 | 0.0 | 0.00 | 0.00 | 0.00 | ||
| 20260501214050 | 12 | 0 | 0.0 | 0.0 | 0.00 | 0.00 | 0.00 | ||
| 20260501213647 | 12 | 0 | 0.0 | 0.0 | 0.00 | 0.00 | 0.00 | ||
| 20260501213245 | 12 | 0 | 0.0 | 0.0 | 0.00 | 0.00 | 0.00 | ||
| 20260501212844 | 12 | 0 | 0.0 | 0.0 | 0.00 | 0.00 | 0.00 | ||
| 20260501212442 | 12 | 0 | 0.0 | 0.0 | 0.00 | 0.00 | 0.00 | ||
| 20260501212040 | 12 | 0 | 0.0 | 0.0 | 0.00 | 0.00 | 0.00 | ||
| 20260501211638 | 13 | 0 | 0.0 | 0.0 | 0.00 | 0.00 | 0.00 | ||
| 20260501211236 | 13 | 0 | 0.0 | 1.6 | 0.00 | 0.00 | 0.00 | ||
| 20260501210828 | 13 | 0 | 0.0 | 1.6 | 0.00 | 0.00 | 0.00 | ||
| 20260501210425 | 14 | 0 | 1.6 | 3.2 | 0.00 | 0.00 | 0.00 | ||
| 20260501210024 | 14 | 0 | 1.6 | 3.2 | 0.00 | 0.00 | 0.00 | ||
| 20260501205623 | 14 | 0 | 0.0 | 0.0 | 0.00 | 0.00 | 0.00 | ||
| 20260501205221 | 14 | 0 | 0.0 | 3.2 | 0.00 | 0.00 | 0.00 | ||
| 20260501204819 | 14 | 0 | 1.6 | 3.2 | 0.00 | 0.00 | 0.00 | ||
| 20260501204417 | 14 | 0 | 1.6 | 3.2 | 0.00 | 0.00 | 0.00 | ||
| 20260501204016 | 14 | 0 | 0.0 | 3.2 | 0.00 | 0.00 | 0.00 | ||
| 20260501203615 | 14 | 0 | 0.0 | 0.0 | 0.00 | 0.00 | 0.00 | ||
| 20260501203213 | 15 | 0 | 0.0 | 0.0 | 0.00 | 0.00 | 0.00 | ||
| 20260501202804 | 15 | 0 | 3.2 | 6.4 | 0.00 | 0.00 | 0.00 | ||
| 20260501202402 | 15 | 21 | 3.2 | 4.8 | 0.00 | 0.00 | 0.00 | ||
| 20260501202001 | 15 | 8 | 4.8 | 8.0 | 0.00 | 0.00 | 0.00 | ||
| 20260501201600 | 15 | 2 | 3.2 | 6.4 | 0.00 | 0.00 | 0.00 | ||
| 20260501201157 | 15 | 12 | 4.8 | 8.0 | 0.00 | 0.00 | 0.00 | ||
| 20260501200756 | 16 | 21 | 4.8 | 8.0 | 0.00 | 0.00 | 0.00 | ||
| 20260501200355 | 15 | 21 | 3.2 | 6.4 | 0.00 | 0.00 | 0.00 | ||
| 20260501195954 | 15 | 21 | 1.6 | 4.8 | 0.00 | 0.00 | 0.00 | ||
| 20260501195551 | 15 | 21 | 4.8 | 8.0 | 0.00 | 0.00 | 0.00 | ||
| 20260501195150 | 15 | 0 | 1.6 | 6.4 | 0.00 | 0.00 | 0.00 | ||
| 20260501194742 | 16 | 0 | 1.6 | 3.2 | 0.00 | 0.00 | 0.00 | ||
| 20260501194340 | 16 | 0 | 0.0 | 1.6 | 0.00 | 0.00 | 0.00 | ||
| 20260501193938 | 16 | 358 | 1.6 | 4.8 | 0.00 | 0.00 | 0.00 | ||
| 20260501193537 | 16 | 0 | 1.6 | 6.4 | 0.00 | 0.00 | 0.00 | ||
| 20260501193135 | 16 | 0 | 1.6 | 6.4 | 0.00 | 0.00 | 0.00 | ||
| 20260501192734 | 16 | 0 | 0.0 | 3.2 | 0.00 | 0.00 | 0.00 | ||
| 20260501191930 | 16 | 351 | 0.0 | 3.2 | 0.00 | 0.00 | 0.00 | ||
| 20260501191529 | 16 | 0 | 1.6 | 3.2 | 0.00 | 0.00 | 0.00 | ||
| 20260501191127 | 17 | 353 | 1.6 | 4.8 | 0.00 | 0.00 | 0.00 | ||
| 20260501190719 | 17 | 13 | 3.2 | 8.0 | 0.00 | 0.00 | 0.00 | ||
| 20260501190316 | 17 | 2 | 6.4 | 12.9 | 0.00 | 0.00 | 0.00 | ||
| 20260501185915 | 17 | 1 | 4.8 | 8.0 | 0.00 | 0.00 | 0.00 | ||
| 20260501185514 | 17 | 0 | 4.8 | 8.0 | 0.00 | 0.00 | 0.00 | ||
| 20260501185112 | 17 | 0 | 1.6 | 6.4 | 0.00 | 0.00 | 0.00 | ||
| 20260501184710 | 17 | 4 | 4.8 | 9.7 | 0.00 | 0.00 | 0.00 | ||
| 20260501184308 | 17 | 356 | 4.8 | 9.7 | 0.00 | 0.00 | 0.00 | ||
| 20260501183907 | 17 | 0 | 4.8 | 9.7 | 0.00 | 0.00 | 0.00 | ||
| 20260501183506 | 17 | 6 | 6.4 | 8.0 | 0.00 | 0.00 | 0.00 | ||
| 20260501183103 | 17 | 359 | 6.4 | 11.3 | 0.00 | 0.00 | 0.00 | ||
| 20260501182655 | 17 | 1 | 4.8 | 9.7 | 0.00 | 0.00 | 0.00 | ||
| 20260501182253 | 17 | 7 | 4.8 | 8.0 | 0.00 | 0.00 | 0.00 | ||
| 20260501181853 | 17 | 6 | 4.8 | 8.0 | 0.00 | 0.00 | 0.00 | ||
| 20260501181452 | 18 | 0 | 3.2 | 6.4 | 0.00 | 0.00 | 0.00 | ||
| 20260501181049 | 18 | 338 | 1.6 | 6.4 | 0.00 | 0.00 | 0.00 | ||
| 20260501180648 | 18 | 332 | 3.2 | 6.4 | 0.00 | 0.00 | 0.00 | ||
| 20260501180245 | 18 | 320 | 4.8 | 9.7 | 0.00 | 0.00 | 0.00 | ||
| 20260501175844 | 18 | 319 | 4.8 | 9.7 | 0.00 | 0.00 | 0.00 | ||
| 20260501175442 | 18 | 338 | 3.2 | 6.4 | 0.00 | 0.00 | 0.00 | ||
| 20260501175040 | 18 | 346 | 3.2 | 6.4 | 0.00 | 0.00 | 0.00 | ||
| 20260501174632 | 19 | 349 | 4.8 | 11.3 | 0.00 | 0.00 | 0.00 | ||
| 20260501174230 | 19 | 339 | 3.2 | 8.0 | 0.00 | 0.00 | 0.00 | ||
| 20260501173828 | 19 | 338 | 4.8 | 8.0 | 0.00 | 0.00 | 0.00 | ||
| 20260501173427 | 19 | 335 | 4.8 | 9.7 | 0.00 | 0.00 | 0.00 | ||
| 20260501173025 | 20 | 332 | 6.4 | 12.9 | 0.00 | 0.00 | 0.00 | ||
| 20260501172624 | 20 | 333 | 6.4 | 11.3 | 0.00 | 0.00 | 0.00 | ||
| 20260501172221 | 20 | 0 | 4.8 | 8.0 | 0.00 | 0.00 | 0.00 | ||
| 20260501171820 | 20 | 343 | 4.8 | 9.7 | 0.00 | 0.00 | 0.00 | ||
| 20260501171419 | 20 | 354 | 6.4 | 9.7 | 0.00 | 0.00 | 0.00 | ||
| 20260501171017 | 20 | 357 | 3.2 | 8.0 | 0.00 | 0.00 | 0.00 | ||
| 20260501170609 | 21 | 328 | 4.8 | 8.0 | 0.00 | 0.00 | 0.00 | ||
| 20260501170206 | 20 | 336 | 8.0 | 16.1 | 0.00 | 0.00 | 0.00 | ||
| 20260501165805 | 21 | 340 | 3.2 | 9.7 | 0.00 | 0.00 | 0.00 | ||
| 20260501165404 | 20 | 359 | 8.0 | 12.9 | 0.00 | 0.00 | 0.00 | ||
| 20260501165003 | 20 | 8 | 8.0 | 16.1 | 0.00 | 0.00 | 0.00 | ||
| 20260501164600 | 21 | 351 | 4.8 | 9.7 | 0.00 | 0.00 | 0.00 | ||
| 20260501164159 | 21 | 0 | 4.8 | 9.7 | 0.00 | 0.00 | 0.00 | ||
| 20260501163758 | 22 | 346 | 3.2 | 6.4 | 0.00 | 0.00 | 0.00 | ||
| 20260501163357 | 23 | 351 | 4.8 | 9.7 | 0.00 | 0.00 | 0.00 | ||
| 20260501162954 | 22 | 348 | 8.0 | 11.3 | 0.00 | 0.00 | 0.00 | ||
| 20260501162546 | 23 | 354 | 4.8 | 9.7 | 0.00 | 0.00 | 0.00 | ||
| 20260501162144 | 22 | 0 | 6.4 | 14.5 | 0.00 | 0.00 | 0.00 | ||
| 20260501161743 | 22 | 348 | 6.4 | 11.3 | 0.00 | 0.00 | 0.00 | ||
| 20260501161341 | 22 | 334 | 8.0 | 14.5 | 0.00 | 0.00 | 0.00 | ||
| 20260501160939 | 22 | 346 | 8.0 | 16.1 | 0.00 | 0.00 | 0.00 | ||
| 20260501160538 | 23 | 351 | 6.4 | 14.5 | 0.00 | 0.00 | 0.00 | ||
| 20260501160136 | 23 | 331 | 3.2 | 8.0 | 0.00 | 0.00 | 0.00 | ||
| 20260501155735 | 22 | 324 | 4.8 | 11.3 | 0.00 | 0.00 | 0.00 | ||
| 20260501155333 | 23 | 311 | 4.8 | 9.7 | 0.00 | 0.00 | 0.00 | ||
| 20260501154931 | 22 | 307 | 11.3 | 14.5 | 0.00 | 0.00 | 0.00 | ||
| 20260501154523 | 22 | 316 | 9.7 | 14.5 | 0.00 | 0.00 | 0.00 | ||
| 20260501154121 | 21 | 307 | 9.7 | 14.5 | 0.00 | 0.00 | 0.00 | ||
| 20260501153719 | 21 | 315 | 11.3 | 17.7 | 0.00 | 0.00 | 0.00 | ||
| 20260501152916 | 20 | 345 | 4.8 | 11.3 | 0.00 | 0.00 | 0.00 | ||
| 20260501152515 | 20 | 321 | 4.8 | 12.9 | 0.00 | 0.00 | 0.00 | ||
| 20260501152112 | 20 | 291 | 4.8 | 14.5 | 0.00 | 0.00 | 0.00 | ||
| 20260501151711 | 20 | 301 | 4.8 | 9.7 | 0.00 | 0.00 | 0.00 | ||
| 20260501151310 | 20 | 327 | 4.8 | 8.0 | 0.00 | 0.00 | 0.00 | ||
| 20260501150908 | 19 | 303 | 6.4 | 16.1 | 0.00 | 0.00 | 0.00 | ||
| 20260501150459 | 20 | 306 | 6.4 | 12.9 | 0.00 | 0.00 | 0.00 | ||
| 20260501150057 | 20 | 319 | 6.4 | 9.7 | 0.00 | 0.00 | 0.00 | ||
| 20260501145656 | 20 | 318 | 4.8 | 11.3 | 0.00 | 0.00 | 0.00 | ||
| 20260501145255 | 21 | 339 | 9.7 | 20.9 | 0.00 | 0.00 | 0.00 | ||
| 20260501144451 | 21 | 281 | 3.2 | 8.0 | 0.00 | 0.00 | 0.00 | ||
| 20260501144050 | 21 | 340 | 8.0 | 9.7 | 0.00 | 0.00 | 0.00 | ||
| 20260501143649 | 21 | 306 | 8.0 | 16.1 | 0.00 | 0.00 | 0.00 | ||
| 20260501143248 | 21 | 299 | 8.0 | 16.1 | 0.00 | 0.00 | 0.00 | ||
| 20260501142845 | 21 | 295 | 6.4 | 12.9 | 0.00 | 0.00 | 0.00 | ||
| 20260501142436 | 21 | 272 | 6.4 | 12.9 | 0.00 | 0.00 | 0.00 | ||
| 20260501142035 | 20 | 292 | 4.8 | 9.7 | 0.00 | 0.00 | 0.00 | ||
| 20260501141634 | 20 | 300 | 8.0 | 14.5 | 0.00 | 0.00 | 0.00 | ||
| 20260501141231 | 19 | 299 | 11.3 | 16.1 | 0.00 | 0.00 | 0.00 | ||
| 20260501140829 | 20 | 291 | 12.9 | 22.5 | 0.00 | 0.00 | 0.00 | ||
| 20260501140428 | 20 | 289 | 6.4 | 12.9 | 0.00 | 0.00 | 0.00 | ||
| 20260501140026 | 20 | 307 | 9.7 | 16.1 | 0.00 | 0.00 | 0.00 | ||
| 20260501135624 | 20 | 312 | 6.4 | 12.9 | 0.00 | 0.00 | 0.00 | ||
| 20260501135223 | 20 | 339 | 8.0 | 14.5 | 0.00 | 0.00 | 0.00 | ||
| 20260501134821 | 20 | 277 | 8.0 | 16.1 | 0.00 | 0.00 | 0.00 | ||
| 20260501134413 | 20 | 283 | 9.7 | 14.5 | 0.00 | 0.00 | 0.00 |